Precipitable_Water
0.91 0.90 0.90 0.87 0.87 0.86 0.81 0.83 0.83 0.84 0.85 0.91 0.93 0.92 0.95 0.94 0.91 0.85 0.86 0.79 0.74 0.71 0.68 0.65 0.62 0.59 0.61 0.56 0.59 0.63 0.64 0.70 0.71 0.76 0.78 0.81 0.82 0.85 0.83 0.82 0.85 0.86 0.83 0.83 0.83 0.85 0.86 0.89 0.94 1.00 1.08 1.13 1.16 1.19 1.25 1.25 1.27 1.34 1.33 1.30 1.24 1.20 1.29 1.36 1.42 1.39 1.24 1.25 1.38 1.38 1.43 1.44 1.44 1.47 1.47 1.53 1.55 1.56 1.59 1.55 1.49 1.38 1.34 1.34 1.38
0.95 0.94 0.93 0.91 0.90 0.90 0.89 0.86 0.85 0.80 0.85 0.90 0.90 0.91 0.93 0.96 0.92 0.87 0.86 0.83 0.74 0.72 0.70 0.67 0.65 0.61 0.58 0.54 0.57 0.60 0.62 0.65 0.65 0.71 0.75 0.78 0.79 0.79 0.78 0.84 0.85 0.83 0.82 0.81 0.79 0.77 0.77 0.80 0.83 0.87 0.94 1.01 1.07 1.15 1.24 1.25 1.26 1.26 1.31 1.25 1.28 1.19 1.20 1.32 1.40 1.32 1.16 1.08 1.07 1.13 1.26 1.42 1.46 1.45 1.43 1.50 1.52 1.54 1.55 1.56 1.61 1.47 1.38 1.34 1.33
1.00 0.96 0.96 0.93 0.94 0.95 0.94 0.90 0.87 0.88 0.88 0.90 0.98 0.94 0.96 0.98 0.92 0.89 0.84 0.83 0.76 0.75 0.74 0.66 0.65 0.64 0.61 0.56 0.59 0.58 0.67 0.68 0.70 0.72 0.74 0.74 0.77 0.77 0.82 0.84 0.84 0.81 0.81 0.80 0.78 0.80 0.79 0.79 0.80 0.83 0.86 0.93 0.96 1.01 1.08 1.13 1.25 1.24 1.25 1.21 1.15 1.20 1.22 1.33 1.31 1.31 1.13 1.19 1.19 1.07 1.02 1.05 1.22 1.30 1.41 1.46 1.51 1.49 1.52 1.56 1.59 1.54 1.44 1.40 1.35
0.99 0.98 0.96 0.95 0.97 0.96 0.95 0.94 0.92 0.92 0.93 0.91 0.96 0.94 0.96 0.98 0.88 0.90 0.86 0.85 0.78 0.77 0.76 0.70 0.66 0.65 0.65 0.59 0.60 0.59 0.60 0.68 0.68 0.70 0.69 0.69 0.72 0.77 0.78 0.78 0.78 0.78 0.77 0.78 0.77 0.77 0.77 0.77 0.78 0.81 0.83 0.88 0.90 0.92 0.97 1.01 1.10 1.11 1.18 1.22 1.21 1.07 1.07 1.12 1.29 1.30 1.28 1.17 0.99 0.98 1.02 1.06 1.01 1.10 1.22 1.36 1.49 1.50 1.47 1.50 1.58 1.57 1.54 1.49 1.43
0.89 0.98 1.00 1.02 1.01 1.01 0.98 0.99 1.00 0.94 0.96 0.93 0.96 0.96 0.94 0.95 0.90 0.91 0.89 0.85 0.80 0.78 0.77 0.70 0.65 0.62 0.63 0.59 0.60 0.58 0.60 0.63 0.64 0.61 0.62 0.64 0.68 0.68 0.70 0.75 0.74 0.73 0.75 0.75 0.75 0.74 0.77 0.79 0.79 0.79 0.78 0.82 0.86 0.87 0.91 0.97 1.04 1.10 1.19 1.19 1.12 1.13 1.07 1.08 1.20 1.29 1.30 1.33 1.17 1.04 0.98 0.95 1.00 1.11 1.19 1.19 1.39 1.38 1.42 1.46 1.51 1.57 1.56 1.53 1.47
0.87 1.01 1.06 1.09 1.06 1.07 1.04 1.02 1.00 0.95 0.94 0.98 1.01 1.00 0.98 0.98 0.96 0.91 0.91 0.89 0.82 0.78 0.75 0.68 0.62 0.59 0.58 0.51 0.50 0.49 0.48 0.52 0.55 0.55 0.58 0.61 0.62 0.65 0.69 0.70 0.69 0.70 0.73 0.75 0.75 0.75 0.74 0.77 0.80 0.80 0.78 0.76 0.78 0.82 0.85 0.89 0.94 1.00 1.07 1.13 1.10 1.21 1.18 1.07 1.08 1.27 1.31 1.33 1.36 1.32 1.24 1.02 1.05 1.20 1.18 1.00 1.35 1.42 1.40 1.41 1.42 1.50 1.57 1.57 1.55
0.92 0.94 0.96 1.02 1.05 1.04 1.04 1.02 1.00 0.95 0.94 0.99 1.03 1.03 1.00 0.99 0.96 0.92 0.91 0.88 0.84 0.78 0.74 0.69 0.63 0.59 0.57 0.54 0.53 0.51 0.47 0.52 0.59 0.62 0.63 0.67 0.69 0.65 0.66 0.69 0.73 0.70 0.73 0.76 0.75 0.77 0.78 0.82 0.82 0.83 0.82 0.79 0.78 0.78 0.79 0.83 0.88 0.95 1.04 1.07 1.16 1.17 1.15 1.03 1.01 1.05 1.21 1.23 1.33 1.37 1.35 1.32 1.26 1.13 1.04 1.13 1.01 1.22 1.36 1.37 1.39 1.46 1.52 1.52 1.53
0.88 0.87 0.91 0.97 0.95 0.88 0.93 1.01 1.00 0.99 0.98 1.04 1.03 1.03 0.98 0.98 0.98 0.90 0.89 0.86 0.85 0.77 0.75 0.71 0.63 0.59 0.57 0.54 0.54 0.52 0.51 0.50 0.54 0.61 0.67 0.68 0.67 0.66 0.65 0.72 0.75 0.75 0.73 0.76 0.75 0.75 0.81 0.87 0.87 0.86 0.83 0.83 0.82 0.77 0.77 0.84 0.90 0.94 1.01 1.09 1.13 1.14 1.16 1.14 1.12 1.14 1.02 1.08 1.27 1.27 1.30 1.35 1.34 1.32 1.27 1.16 1.12 1.03 1.13 1.38 1.43 1.43 1.45 1.45 1.49
0.89 0.87 0.91 0.93 0.92 0.91 0.97 1.03 1.03 1.03 1.01 0.99 1.00 1.03 1.01 0.99 0.98 0.93 0.90 0.88 0.85 0.77 0.73 0.72 0.67 0.62 0.59 0.54 0.50 0.54 0.54 0.53 0.56 0.61 0.64 0.69 0.65 0.65 0.66 0.71 0.75 0.75 0.73 0.74 0.73 0.77 0.82 0.88 0.88 0.86 0.85 0.83 0.81 0.79 0.81 0.87 0.90 0.91 0.94 0.98 1.05 1.18 1.16 1.12 1.11 1.12 1.13 1.07 1.11 1.22 1.24 1.23 1.31 1.32 1.32 1.32 1.18 1.07 1.05 1.08 1.15 1.35 1.38 1.40 1.45
0.91 0.90 0.91 0.93 0.94 0.96 1.00 1.03 1.01 1.00 1.00 1.01 1.00 1.03 1.02 1.00 0.97 0.92 0.89 0.89 0.84 0.77 0.76 0.72 0.69 0.64 0.57 0.55 0.51 0.54 0.52 0.54 0.55 0.56 0.61 0.64 0.64 0.65 0.67 0.71 0.73 0.75 0.77 0.73 0.71 0.75 0.82 0.86 0.87 0.87 0.86 0.87 0.86 0.80 0.79 0.83 0.88 0.93 1.00 1.03 1.08 1.11 1.11 1.10 1.14 1.17 1.18 1.12 1.07 1.12 1.13 1.21 1.20 1.19 1.22 1.23 1.24 1.23 1.10 1.09 1.14 1.13 1.10 1.24 1.40
0.88 0.91 0.86 0.85 0.93 0.98 0.98 0.97 0.99 1.02 0.99 0.97 0.98 0.98 1.02 1.00 0.97 0.91 0.88 0.86 0.81 0.78 0.75 0.71 0.69 0.67 0.59 0.57 0.55 0.54 0.52 0.51 0.51 0.51 0.56 0.61 0.60 0.61 0.66 0.69 0.75 0.76 0.80 0.76 0.74 0.77 0.81 0.84 0.85 0.85 0.87 0.87 0.86 0.80 0.78 0.80 0.85 0.91 0.98 1.05 1.08 1.07 1.13 1.14 1.17 1.20 1.20 1.15 1.12 1.13 1.17 1.15 1.10 1.07 1.14 1.24 1.24 1.17 1.14 1.11 1.14 1.17 1.15 1.14 1.30
0.74 0.80 0.81 0.88 0.92 0.94 1.00 0.96 0.98 0.98 0.97 0.95 0.95 0.96 1.00 1.02 0.97 0.89 0.85 0.82 0.80 0.79 0.73 0.72 0.69 0.67 0.63 0.60 0.57 0.56 0.54 0.51 0.50 0.51 0.56 0.58 0.60 0.58 0.64 0.72 0.75 0.77 0.80 0.80 0.78 0.78 0.75 0.77 0.82 0.83 0.85 0.85 0.84 0.86 0.81 0.81 0.83 0.89 0.95 1.00 1.02 1.06 1.09 1.09 1.10 1.12 1.15 1.14 1.09 1.10 1.15 1.22 1.20 1.17 1.18 1.21 1.23 1.23 1.18 1.13 1.14 1.20 1.21 1.23 1.34
0.73 0.81 0.82 0.88 0.88 0.90 0.90 0.93 0.95 0.95 0.94 0.94 0.95 0.95 0.94 0.96 0.93 0.85 0.82 0.82 0.81 0.79 0.72 0.71 0.70 0.67 0.62 0.59 0.59 0.59 0.57 0.54 0.52 0.53 0.57 0.58 0.59 0.58 0.62 0.66 0.72 0.74 0.78 0.79 0.80 0.80 0.79 0.74 0.77 0.79 0.79 0.81 0.83 0.86 0.87 0.84 0.82 0.85 0.91 0.96 1.00 1.01 1.04 1.07 1.12 1.18 1.13 1.05 1.07 1.18 1.20 1.18 1.17 1.26 1.27 1.23 1.29 1.31 1.24 1.14 1.21 1.27 1.15 1.17 1.28
0.85 0.87 0.90 0.84 0.86 0.88 0.91 0.89 0.90 0.93 0.94 0.95 0.96 0.94 0.92 0.88 0.85 0.83 0.82 0.84 0.82 0.78 0.73 0.70 0.69 0.70 0.68 0.62 0.61 0.62 0.59 0.56 0.54 0.53 0.54 0.57 0.59 0.58 0.62 0.67 0.71 0.75 0.78 0.80 0.84 0.83 0.81 0.79 0.77 0.77 0.79 0.79 0.80 0.82 0.87 0.88 0.86 0.84 0.86 0.90 0.95 1.00 1.04 1.08 1.13 1.13 1.14 1.12 1.10 1.10 1.17 1.16 1.17 1.25 1.27 1.29 1.27 1.22 1.15 1.12 1.11 1.17 1.22 1.19 1.27
0.72 0.78 0.78 0.85 0.90 0.86 0.90 0.86 0.88 0.97 1.00 0.98 0.96 0.94 0.91 0.87 0.83 0.81 0.81 0.82 0.83 0.77 0.74 0.69 0.68 0.69 0.70 0.66 0.64 0.63 0.62 0.58 0.55 0.56 0.57 0.56 0.60 0.62 0.67 0.71 0.72 0.76 0.78 0.81 0.85 0.85 0.84 0.83 0.80 0.80 0.80 0.81 0.81 0.81 0.83 0.85 0.86 0.85 0.85 0.89 0.94 1.00 1.02 1.01 1.02 1.07 1.05 1.08 1.08 1.10 1.17 1.20 1.18 1.19 1.22 1.25 1.26 1.25 1.17 1.13 1.11 1.03 1.11 1.17 1.15
0.69 0.73 0.72 0.75 0.80 0.84 0.91 0.96 0.94 0.88 0.95 0.90 0.89 0.88 0.88 0.85 0.83 0.84 0.83 0.81 0.78 0.75 0.73 0.71 0.67 0.67 0.68 0.64 0.64 0.63 0.64 0.60 0.57 0.57 0.58 0.59 0.62 0.67 0.70 0.73 0.76 0.79 0.81 0.82 0.85 0.85 0.83 0.81 0.81 0.80 0.81 0.80 0.81 0.82 0.82 0.82 0.84 0.84 0.83 0.84 0.86 0.93 0.92 0.92 0.94 0.97 1.03 1.05 1.07 1.15 1.17 1.18 1.19 1.16 1.20 1.22 1.25 1.32 1.28 1.21 1.15 1.09 1.00 0.97 1.10
0.66 0.67 0.68 0.75 0.77 0.77 0.78 0.82 0.87 0.84 0.86 0.88 0.86 0.88 0.88 0.87 0.85 0.83 0.84 0.81 0.75 0.73 0.72 0.71 0.68 0.67 0.66 0.65 0.65 0.64 0.63 0.59 0.56 0.54 0.57 0.61 0.64 0.69 0.73 0.77 0.80 0.83 0.85 0.87 0.85 0.83 0.81 0.79 0.77 0.77 0.77 0.78 0.78 0.79 0.81 0.82 0.80 0.80 0.83 0.86 0.85 0.89 0.88 0.89 0.93 0.95 1.00 1.05 1.08 1.08 1.17 1.24 1.17 1.15 1.21 1.25 1.26 1.30 1.31 1.26 1.22 1.11 1.09 0.98 0.95
0.67 0.65 0.66 0.70 0.77 0.77 0.75 0.78 0.76 0.86 0.84 0.88 0.88 0.91 0.91 0.90 0.86 0.84 0.81 0.75 0.74 0.74 0.72 0.69 0.69 0.70 0.68 0.67 0.66 0.65 0.65 0.62 0.58 0.55 0.58 0.61 0.65 0.71 0.76 0.77 0.82 0.87 0.88 0.88 0.86 0.82 0.80 0.79 0.76 0.74 0.74 0.73 0.74 0.75 0.79 0.79 0.79 0.78 0.79 0.82 0.87 0.91 0.90 0.91 0.95 0.98 0.99 1.04 1.10 1.10 1.09 1.14 1.25 1.20 1.16 1.20 1.17 1.16 1.24 1.31 1.28 1.22 1.21 1.08 1.05
0.63 0.61 0.60 0.63 0.71 0.76 0.77 0.78 0.81 0.84 0.84 0.87 0.91 0.90 0.93 0.91 0.90 0.85 0.79 0.78 0.79 0.82 0.82 0.77 0.75 0.71 0.69 0.66 0.65 0.66 0.65 0.62 0.57 0.55 0.58 0.60 0.63 0.68 0.73 0.78 0.82 0.85 0.85 0.82 0.80 0.77 0.76 0.76 0.76 0.74 0.72 0.70 0.69 0.71 0.76 0.80 0.80 0.78 0.81 0.83 0.85 0.87 0.88 0.92 1.02 1.06 1.06 1.04 1.06 1.09 1.09 1.11 1.22 1.23 1.16 1.16 1.15 1.20 1.22 1.28 1.31 1.26 1.22 1.22 1.18
0.61 0.60 0.61 0.62 0.67 0.68 0.76 0.76 0.77 0.83 0.85 0.89 0.89 0.92 0.92 0.94 0.89 0.84 0.83 0.80 0.79 0.79 0.79 0.75 0.74 0.71 0.69 0.67 0.67 0.67 0.67 0.63 0.58 0.55 0.55 0.60 0.61 0.66 0.72 0.76 0.80 0.81 0.80 0.77 0.74 0.72 0.72 0.72 0.73 0.73 0.72 0.70 0.67 0.68 0.71 0.75 0.78 0.79 0.80 0.82 0.84 0.87 0.90 0.94 1.02 1.11 1.16 1.19 1.16 1.15 1.12 1.08 1.15 1.18 1.17 1.17 1.14 1.17 1.21 1.24 1.27 1.28 1.24 1.23 1.26
0.60 0.60 0.61 0.67 0.68 0.72 0.81 0.81 0.84 0.87 0.91 0.93 0.95 0.90 0.92 0.91 0.89 0.87 0.81 0.79 0.75 0.75 0.76 0.74 0.73 0.71 0.68 0.66 0.67 0.67 0.66 0.66 0.60 0.56 0.54 0.60 0.64 0.68 0.73 0.76 0.79 0.79 0.78 0.75 0.73 0.71 0.71 0.70 0.71 0.71 0.70 0.69 0.68 0.67 0.69 0.72 0.73 0.74 0.80 0.83 0.85 0.86 0.87 0.93 1.00 1.04 1.09 1.15 1.16 1.16 1.20 1.19 1.17 1.15 1.18 1.22 1.21 1.19 1.24 1.25 1.21 1.23 1.19 1.20 1.21
0.64 0.63 0.62 0.70 0.76 0.76 0.80 0.84 0.85 0.81 0.86 0.94 0.93 0.92 0.90 0.86 0.85 0.88 0.86 0.80 0.77 0.75 0.73 0.74 0.74 0.73 0.69 0.68 0.67 0.68 0.67 0.66 0.61 0.57 0.56 0.59 0.64 0.70 0.74 0.76 0.76 0.77 0.76 0.73 0.71 0.71 0.71 0.70 0.68 0.67 0.68 0.69 0.69 0.70 0.71 0.71 0.70 0.73 0.76 0.82 0.85 0.86 0.86 0.89 0.96 0.99 1.07 1.11 1.12 1.11 1.15 1.20 1.20 1.13 1.17 1.19 1.20 1.20 1.22 1.22 1.20 1.16 1.17 1.19 1.27
0.63 0.60 0.60 0.66 0.73 0.78 0.77 0.84 0.90 0.82 0.86 0.86 0.96 0.97 0.89 0.84 0.81 0.79 0.81 0.81 0.79 0.77 0.77 0.74 0.72 0.70 0.67 0.68 0.68 0.67 0.67 0.65 0.62 0.57 0.56 0.61 0.65 0.71 0.76 0.75 0.76 0.75 0.76 0.74 0.72 0.71 0.71 0.70 0.69 0.67 0.67 0.67 0.67 0.67 0.69 0.69 0.70 0.73 0.73 0.76 0.82 0.86 0.86 0.87 0.92 0.97 1.06 1.14 1.15 1.15 1.17 1.19 1.16 1.12 1.15 1.17 1.21 1.17 1.19 1.21 1.19 1.23 1.23 1.26 1.28
0.64 0.65 0.67 0.70 0.66 0.70 0.72 0.76 0.79 0.86 0.87 0.84 0.84 0.85 0.83 0.84 0.80 0.77 0.75 0.77 0.78 0.79 0.76 0.75 0.73 0.68 0.67 0.67 0.67 0.67 0.67 0.66 0.60 0.56 0.55 0.60 0.64 0.69 0.75 0.76 0.76 0.76 0.74 0.74 0.73 0.71 0.70 0.69 0.68 0.67 0.67 0.67 0.66 0.67 0.68 0.69 0.70 0.71 0.71 0.71 0.77 0.83 0.84 0.87 0.94 0.96 1.01 1.07 1.10 1.10 1.15 1.19 1.20 1.16 1.16 1.17 1.20 1.22 1.21 1.21 1.18 1.21 1.24 1.24 1.26
0.67 0.72 0.73 0.74 0.69 0.68 0.70 0.70 0.75 0.75 0.81 0.84 0.82 0.83 0.77 0.78 0.82 0.80 0.77 0.75 0.76 0.79 0.77 0.75 0.72 0.68 0.68 0.67 0.66 0.66 0.65 0.64 0.59 0.55 0.56 0.62 0.67 0.70 0.74 0.75 0.75 0.75 0.74 0.72 0.71 0.72 0.70 0.69 0.68 0.68 0.69 0.69 0.67 0.67 0.68 0.71 0.69 0.67 0.68 0.70 0.72 0.80 0.85 0.92 0.97 1.00 1.05 1.06 1.07 1.09 1.11 1.16 1.18 1.15 1.15 1.16 1.17 1.18 1.22 1.20 1.18 1.20 1.21 1.25 1.28
0.67 0.69 0.74 0.75 0.74 0.72 0.72 0.71 0.71 0.74 0.82 0.82 0.81 0.82 0.82 0.82 0.82 0.84 0.80 0.79 0.78 0.79 0.77 0.74 0.71 0.68 0.66 0.65 0.64 0.63 0.62 0.60 0.57 0.55 0.56 0.61 0.68 0.71 0.74 0.76 0.77 0.75 0.72 0.71 0.71 0.72 0.72 0.70 0.70 0.71 0.71 0.71 0.69 0.68 0.70 0.71 0.68 0.64 0.63 0.70 0.74 0.78 0.82 0.87 0.95 1.00 1.05 1.10 1.13 1.12 1.14 1.15 1.14 1.14 1.16 1.18 1.19 1.18 1.23 1.24 1.20 1.21 1.21 1.23 1.27
0.61 0.68 0.75 0.84 0.80 0.74 0.72 0.76 0.75 0.70 0.69 0.72 0.73 0.74 0.77 0.81 0.84 0.87 0.88 0.86 0.82 0.80 0.78 0.75 0.71 0.67 0.64 0.63 0.60 0.60 0.60 0.59 0.56 0.54 0.57 0.63 0.70 0.76 0.77 0.77 0.78 0.74 0.71 0.71 0.72 0.73 0.75 0.73 0.72 0.73 0.74 0.73 0.71 0.70 0.71 0.71 0.68 0.62 0.60 0.63 0.70 0.75 0.81 0.88 0.94 0.98 1.04 1.05 1.07 1.11 1.14 1.15 1.12 1.14 1.17 1.17 1.19 1.20 1.22 1.20 1.18 1.18 1.21 1.26 1.27
0.62 0.65 0.67 0.74 0.77 0.77 0.72 0.75 0.75 0.72 0.72 0.74 0.74 0.74 0.73 0.75 0.76 0.83 0.90 0.89 0.85 0.81 0.78 0.74 0.69 0.65 0.62 0.60 0.59 0.57 0.59 0.58 0.55 0.53 0.58 0.64 0.71 0.75 0.77 0.78 0.77 0.73 0.72 0.72 0.72 0.74 0.76 0.77 0.75 0.74 0.75 0.75 0.74 0.73 0.74 0.72 0.67 0.64 0.61 0.60 0.67 0.76 0.81 0.87 0.96 1.02 1.04 1.07 1.09 1.09 1.11 1.13 1.12 1.15 1.18 1.20 1.19 1.17 1.18 1.19 1.21 1.21 1.24 1.22 1.22
0.60 0.62 0.67 0.75 0.77 0.77 0.75 0.73 0.71 0.70 0.70 0.73 0.74 0.74 0.74 0.75 0.80 0.83 0.86 0.88 0.87 0.80 0.75 0.71 0.69 0.65 0.61 0.59 0.58 0.58 0.59 0.55 0.53 0.52 0.54 0.61 0.68 0.73 0.77 0.78 0.76 0.74 0.75 0.75 0.76 0.77 0.77 0.78 0.79 0.77 0.75 0.76 0.75 0.76 0.75 0.71 0.67 0.64 0.62 0.59 0.63 0.73 0.80 0.85 0.92 0.98 1.03 1.09 1.10 1.12 1.15 1.16 1.20 1.19 1.21 1.22 1.22 1.23 1.20 1.16 1.21 1.20 1.17 1.12 1.12
0.61 0.64 0.68 0.74 0.76 0.75 0.76 0.77 0.70 0.65 0.69 0.71 0.71 0.76 0.76 0.71 0.75 0.83 0.83 0.87 0.86 0.80 0.74 0.71 0.66 0.63 0.61 0.59 0.58 0.55 0.51 0.50 0.49 0.51 0.56 0.60 0.64 0.69 0.73 0.75 0.76 0.75 0.75 0.75 0.74 0.76 0.78 0.79 0.79 0.79 0.78 0.77 0.78 0.79 0.76 0.73 0.71 0.67 0.65 0.62 0.61 0.67 0.76 0.80 0.85 0.93 0.99 1.02 1.08 1.12 1.13 1.15 1.17 1.20 1.23 1.20 1.18 1.16 1.19 1.21 1.20 1.18 1.14 1.08 1.06
0.62 0.63 0.63 0.68 0.69 0.72 0.74 0.73 0.68 0.67 0.71 0.75 0.76 0.73 0.72 0.76 0.73 0.77 0.78 0.81 0.82 0.78 0.75 0.73 0.69 0.64 0.58 0.53 0.47 0.47 0.50 0.48 0.50 0.53 0.55 0.56 0.60 0.67 0.69 0.71 0.73 0.74 0.73 0.73 0.72 0.73 0.77 0.79 0.80 0.80 0.79 0.78 0.80 0.79 0.77 0.75 0.70 0.68 0.68 0.68 0.63 0.62 0.69 0.76 0.82 0.89 0.92 0.97 1.01 1.08 1.11 1.13 1.14 1.14 1.18 1.20 1.19 1.17 1.15 1.13 1.12 1.12 1.12 1.09 1.04
0.62 0.64 0.63 0.65 0.68 0.68 0.72 0.68 0.68 0.69 0.66 0.70 0.71 0.71 0.74 0.76 0.74 0.73 0.76 0.78 0.78 0.76 0.74 0.72 0.71 0.68 0.63 0.57 0.55 0.52 0.48 0.47 0.48 0.50 0.52 0.54 0.57 0.60 0.62 0.64 0.68 0.69 0.71 0.72 0.70 0.71 0.73 0.76 0.79 0.82 0.81 0.79 0.81 0.80 0.79 0.76 0.71 0.69 0.71 0.73 0.70 0.65 0.66 0.69 0.78 0.84 0.90 0.93 0.96 1.02 1.07 1.07 1.10 1.12 1.14 1.16 1.18 1.19 1.17 1.16 1.14 1.12 1.10 1.09 1.08
0.60 0.62 0.64 0.66 0.67 0.68 0.70 0.69 0.65 0.66 0.63 0.61 0.65 0.69 0.68 0.68 0.70 0.74 0.70 0.71 0.72 0.72 0.71 0.70 0.69 0.65 0.61 0.58 0.56 0.51 0.47 0.47 0.48 0.49 0.52 0.53 0.55 0.57 0.59 0.61 0.63 0.66 0.68 0.68 0.69 0.70 0.72 0.75 0.78 0.80 0.80 0.79 0.81 0.81 0.79 0.75 0.72 0.71 0.75 0.76 0.74 0.70 0.68 0.68 0.72 0.79 0.86 0.91 0.95 0.96 0.99 1.04 1.08 1.15 1.16 1.16 1.14 1.17 1.19 1.17 1.14 1.13 1.12 1.11 1.09
0.59 0.61 0.64 0.66 0.70 0.70 0.70 0.68 0.65 0.63 0.65 0.66 0.64 0.61 0.64 0.63 0.63 0.70 0.70 0.69 0.68 0.68 0.70 0.69 0.68 0.64 0.60 0.56 0.53 0.51 0.48 0.47 0.47 0.48 0.50 0.51 0.53 0.55 0.58 0.61 0.62 0.63 0.63 0.65 0.68 0.70 0.72 0.74 0.78 0.79 0.79 0.79 0.82 0.81 0.78 0.74 0.72 0.72 0.77 0.79 0.77 0.74 0.74 0.72 0.73 0.76 0.84 0.88 0.92 0.95 0.96 0.99 1.06 1.10 1.14 1.09 1.11 1.14 1.13 1.15 1.12 1.09 1.08 1.09 1.10
0.59 0.60 0.62 0.65 0.69 0.69 0.70 0.68 0.65 0.64 0.64 0.64 0.61 0.63 0.67 0.68 0.67 0.65 0.69 0.66 0.64 0.65 0.65 0.64 0.63 0.65 0.62 0.55 0.53 0.52 0.49 0.48 0.48 0.47 0.48 0.48 0.50 0.53 0.54 0.56 0.57 0.58 0.60 0.62 0.65 0.68 0.71 0.75 0.78 0.81 0.79 0.78 0.81 0.80 0.78 0.75 0.72 0.73 0.79 0.82 0.80 0.81 0.81 0.80 0.81 0.82 0.84 0.86 0.88 0.90 0.94 0.96 0.99 0.99 0.99 1.00 1.01 1.06 1.11 1.13 1.10 1.07 1.06 1.06 1.06
0.60 0.60 0.62 0.65 0.68 0.68 0.70 0.69 0.69 0.67 0.64 0.63 0.64 0.62 0.62 0.64 0.65 0.64 0.64 0.65 0.64 0.62 0.59 0.59 0.61 0.62 0.60 0.56 0.54 0.52 0.49 0.48 0.45 0.46 0.47 0.48 0.49 0.51 0.50 0.52 0.53 0.54 0.57 0.61 0.64 0.69 0.72 0.75 0.79 0.80 0.78 0.78 0.80 0.80 0.78 0.76 0.73 0.73 0.79 0.83 0.84 0.85 0.87 0.86 0.86 0.85 0.87 0.86 0.82 0.81 0.83 0.88 0.94 0.93 0.95 0.98 0.99 1.02 1.06 1.07 1.05 1.04 1.01 1.00 1.00
0.64 0.67 0.67 0.67 0.68 0.70 0.72 0.71 0.71 0.70 0.66 0.67 0.67 0.67 0.65 0.65 0.65 0.67 0.68 0.67 0.64 0.61 0.59 0.60 0.57 0.57 0.61 0.60 0.57 0.56 0.51 0.46 0.44 0.43 0.45 0.46 0.47 0.48 0.49 0.51 0.50 0.51 0.53 0.56 0.61 0.66 0.72 0.75 0.77 0.78 0.78 0.78 0.80 0.79 0.78 0.76 0.73 0.74 0.77 0.80 0.84 0.85 0.86 0.87 0.87 0.87 0.88 0.85 0.81 0.79 0.78 0.80 0.86 0.91 0.94 0.98 1.01 1.01 1.02 1.01 1.00 0.98 0.95 0.93 0.92
0.67 0.69 0.71 0.72 0.73 0.72 0.74 0.77 0.74 0.73 0.73 0.71 0.69 0.67 0.65 0.65 0.65 0.66 0.67 0.67 0.66 0.63 0.62 0.61 0.60 0.59 0.62 0.63 0.60 0.56 0.52 0.49 0.46 0.43 0.43 0.45 0.47 0.48 0.49 0.52 0.50 0.50 0.50 0.53 0.56 0.60 0.68 0.74 0.76 0.77 0.78 0.77 0.77 0.79 0.78 0.75 0.73 0.75 0.78 0.79 0.81 0.83 0.85 0.86 0.86 0.88 0.88 0.85 0.81 0.77 0.76 0.76 0.79 0.85 0.92 0.95 0.99 1.02 0.99 0.99 0.97 0.94 0.89 0.86 0.86
0.66 0.67 0.68 0.71 0.73 0.72 0.71 0.73 0.74 0.72 0.75 0.75 0.73 0.71 0.68 0.65 0.66 0.65 0.65 0.65 0.66 0.65 0.64 0.62 0.61 0.59 0.59 0.60 0.59 0.58 0.56 0.51 0.46 0.43 0.43 0.42 0.44 0.46 0.47 0.48 0.49 0.50 0.50 0.53 0.54 0.57 0.63 0.71 0.77 0.78 0.78 0.77 0.77 0.78 0.77 0.74 0.72 0.76 0.79 0.80 0.80 0.82 0.83 0.84 0.83 0.82 0.87 0.87 0.81 0.77 0.75 0.76 0.78 0.82 0.88 0.92 0.95 0.99 0.98 0.98 0.97 0.93 0.87 0.84 0.85
0.66 0.68 0.70 0.72 0.71 0.70 0.71 0.72 0.72 0.74 0.76 0.76 0.76 0.74 0.70 0.67 0.67 0.67 0.65 0.64 0.66 0.67 0.67 0.65 0.66 0.66 0.65 0.61 0.59 0.57 0.53 0.48 0.45 0.45 0.45 0.43 0.44 0.45 0.45 0.46 0.46 0.47 0.49 0.52 0.54 0.54 0.55 0.64 0.73 0.77 0.77 0.76 0.75 0.75 0.75 0.73 0.70 0.74 0.80 0.80 0.80 0.78 0.78 0.80 0.81 0.79 0.78 0.80 0.79 0.75 0.76 0.79 0.81 0.81 0.85 0.90 0.91 0.93 0.95 0.97 0.96 0.91 0.86 0.81 0.88
0.65 0.66 0.68 0.66 0.69 0.73 0.72 0.72 0.72 0.73 0.74 0.75 0.76 0.74 0.71 0.71 0.70 0.66 0.65 0.67 0.70 0.70 0.67 0.67 0.67 0.67 0.68 0.66 0.63 0.59 0.56 0.55 0.52 0.48 0.43 0.41 0.42 0.42 0.45 0.46 0.44 0.41 0.44 0.48 0.51 0.53 0.54 0.58 0.66 0.73 0.75 0.76 0.75 0.72 0.74 0.72 0.70 0.74 0.79 0.79 0.77 0.78 0.78 0.78 0.80 0.80 0.79 0.74 0.75 0.74 0.76 0.80 0.82 0.83 0.87 0.92 0.94 0.93 0.92 0.94 0.95 0.93 0.89 0.89 0.90
0.67 0.67 0.66 0.69 0.71 0.73 0.73 0.73 0.74 0.74 0.76 0.75 0.73 0.71 0.70 0.71 0.71 0.69 0.69 0.72 0.73 0.71 0.68 0.67 0.67 0.67 0.67 0.66 0.64 0.63 0.60 0.55 0.52 0.50 0.45 0.41 0.43 0.45 0.44 0.42 0.41 0.38 0.33 0.35 0.40 0.49 0.53 0.55 0.62 0.69 0.73 0.75 0.75 0.73 0.74 0.71 0.71 0.75 0.77 0.77 0.78 0.77 0.77 0.76 0.78 0.79 0.79 0.76 0.74 0.72 0.75 0.79 0.81 0.83 0.86 0.91 0.94 0.97 0.96 0.96 0.97 0.97 0.93 0.90 0.88
0.65 0.66 0.69 0.68 0.66 0.68 0.69 0.70 0.72 0.73 0.74 0.78 0.77 0.71 0.69 0.70 0.69 0.71 0.74 0.74 0.74 0.71 0.68 0.67 0.67 0.67 0.67 0.67 0.67 0.64 0.63 0.59 0.54 0.49 0.46 0.45 0.44 0.42 0.41 0.41 0.38 0.34 0.30 0.27 0.30 0.40 0.50 0.56 0.59 0.63 0.68 0.72 0.73 0.72 0.72 0.71 0.72 0.76 0.75 0.75 0.75 0.74 0.75 0.77 0.76 0.77 0.78 0.77 0.76 0.74 0.77 0.80 0.80 0.81 0.84 0.87 0.88 0.96 0.95 0.92 0.96 0.96 0.91 0.88 0.88
0.64 0.65 0.67 0.69 0.67 0.68 0.68 0.70 0.71 0.72 0.72 0.74 0.76 0.73 0.71 0.69 0.69 0.75 0.75 0.75 0.76 0.73 0.70 0.67 0.67 0.67 0.67 0.67 0.68 0.68 0.66 0.61 0.55 0.51 0.47 0.43 0.41 0.41 0.38 0.37 0.34 0.32 0.30 0.29 0.34 0.43 0.53 0.57 0.56 0.55 0.61 0.65 0.71 0.71 0.71 0.71 0.73 0.75 0.75 0.74 0.72 0.73 0.73 0.74 0.76 0.78 0.81 0.80 0.77 0.75 0.77 0.80 0.80 0.80 0.81 0.83 0.84 0.84 0.84 0.86 0.90 0.93 0.93 0.90 0.89
0.64 0.66 0.68 0.66 0.66 0.66 0.66 0.66 0.70 0.71 0.71 0.71 0.74 0.74 0.73 0.69 0.71 0.76 0.77 0.75 0.75 0.74 0.70 0.68 0.68 0.68 0.67 0.68 0.69 0.69 0.68 0.63 0.57 0.53 0.50 0.48 0.46 0.43 0.38 0.36 0.33 0.35 0.37 0.38 0.42 0.49 0.53 0.55 0.54 0.56 0.58 0.62 0.66 0.69 0.68 0.72 0.71 0.72 0.72 0.70 0.69 0.70 0.71 0.72 0.72 0.75 0.78 0.78 0.77 0.76 0.77 0.77 0.78 0.79 0.79 0.81 0.82 0.81 0.82 0.84 0.87 0.89 0.92 0.90 0.88
0.64 0.65 0.67 0.68 0.69 0.67 0.66 0.65 0.68 0.71 0.71 0.72 0.71 0.73 0.74 0.76 0.77 0.77 0.78 0.77 0.75 0.74 0.71 0.68 0.70 0.71 0.70 0.70 0.69 0.70 0.71 0.68 0.62 0.57 0.52 0.49 0.46 0.41 0.37 0.33 0.34 0.39 0.43 0.45 0.49 0.52 0.54 0.54 0.52 0.55 0.58 0.60 0.62 0.65 0.65 0.69 0.68 0.67 0.66 0.65 0.64 0.62 0.62 0.63 0.66 0.70 0.74 0.77 0.78 0.78 0.77 0.78 0.78 0.79 0.79 0.79 0.78 0.79 0.80 0.82 0.83 0.84 0.85 0.84 0.84
0.61 0.65 0.67 0.67 0.67 0.66 0.66 0.67 0.67 0.70 0.69 0.68 0.68 0.70 0.73 0.80 0.81 0.80 0.78 0.77 0.75 0.74 0.72 0.71 0.70 0.71 0.71 0.71 0.69 0.69 0.70 0.71 0.67 0.58 0.51 0.46 0.42 0.43 0.43 0.35 0.34 0.40 0.43 0.46 0.49 0.51 0.52 0.54 0.54 0.56 0.57 0.60 0.60 0.61 0.62 0.66 0.64 0.62 0.61 0.60 0.60 0.59 0.64 0.67 0.71 0.75 0.78 0.80 0.80 0.80 0.79 0.80 0.80 0.81 0.81 0.81 0.80 0.78 0.77 0.76 0.78 0.80 0.80 0.79 0.78
0.63 0.64 0.66 0.64 0.65 0.66 0.67 0.67 0.65 0.67 0.67 0.66 0.66 0.69 0.72 0.73 0.79 0.83 0.82 0.78 0.76 0.75 0.74 0.72 0.70 0.71 0.71 0.70 0.69 0.69 0.69 0.68 0.67 0.67 0.59 0.49 0.44 0.45 0.43 0.37 0.38 0.46 0.47 0.44 0.48 0.51 0.50 0.49 0.53 0.54 0.56 0.56 0.56 0.58 0.62 0.65 0.63 0.62 0.61 0.64 0.66 0.66 0.65 0.66 0.66 0.70 0.74 0.80 0.81 0.80 0.80 0.79 0.78 0.77 0.78 0.79 0.78 0.77 0.75 0.72 0.71 0.72 0.73 0.74 0.74
0.63 0.65 0.65 0.62 0.63 0.64 0.65 0.66 0.66 0.70 0.69 0.66 0.66 0.69 0.73 0.75 0.77 0.83 0.84 0.79 0.74 0.73 0.73 0.73 0.73 0.72 0.72 0.72 0.71 0.70 0.69 0.68 0.66 0.63 0.60 0.54 0.48 0.48 0.42 0.37 0.36 0.36 0.42 0.44 0.46 0.48 0.48 0.47 0.49 0.48 0.47 0.46 0.47 0.49 0.54 0.59 0.58 0.56 0.57 0.58 0.56 0.56 0.64 0.64 0.61 0.66 0.65 0.67 0.71 0.74 0.72 0.71 0.71 0.71 0.71 0.70 0.71 0.71 0.72 0.73 0.72 0.71 0.70 0.68 0.65
0.65 0.66 0.65 0.63 0.64 0.66 0.66 0.66 0.67 0.69 0.70 0.69 0.70 0.72 0.73 0.75 0.77 0.79 0.83 0.82 0.79 0.76 0.74 0.73 0.73 0.72 0.73 0.73 0.72 0.71 0.71 0.70 0.70 0.69 0.63 0.58 0.53 0.48 0.44 0.40 0.40 0.30 0.24 0.33 0.40 0.43 0.46 0.45 0.45 0.47 0.48 0.47 0.49 0.53 0.57 0.56 0.54 0.53 0.53 0.53 0.52 0.46 0.51 0.54 0.55 0.60 0.61 0.59 0.60 0.58 0.62 0.64 0.67 0.67 0.63 0.63 0.64 0.63 0.61 0.60 0.60 0.60 0.59 0.58 0.58
0.66 0.63 0.60 0.59 0.62 0.65 0.66 0.67 0.70 0.71 0.69 0.69 0.71 0.74 0.75 0.76 0.77 0.79 0.82 0.82 0.81 0.77 0.74 0.74 0.73 0.72 0.73 0.74 0.73 0.72 0.73 0.73 0.73 0.74 0.71 0.63 0.56 0.52 0.49 0.47 0.45 0.39 0.32 0.25 0.24 0.33 0.42 0.43 0.43 0.43 0.47 0.51 0.51 0.52 0.53 0.54 0.54 0.53 0.53 0.52 0.51 0.47 0.44 0.41 0.47 0.50 0.52 0.52 0.53 0.51 0.52 0.54 0.59 0.60 0.60 0.59 0.58 0.57 0.55 0.53 0.53 0.53 0.53 0.53 0.54
Wind_Speed
10 9 8 8 9 10 10 10 10 11 11 12 12 12 12 12 12 13 13 14 15 15 15 16 16 15 15 14 13 13 13 12 12 12 12 12 13 13 14 14 14 14 14 14 14 14 14 14 14 14 14 14 14 15 15 16 16 16 17 17 18 18 18 17 16 16 16 15 15 14 13 14 14 14 14 14 14 14 13 12 12 13 13 13 13
10 9 8 9 9 10 10 10 11 11 12 12 12 12 11 12 13 13 13 14 14 15 15 15 15 15 14 14 13 12 12 12 12 12 12 12 12 12 13 13 14 14 14 14 14 14 14 14 15 15 15 15 15 15 16 16 16 16 17 18 18 18 18 18 17 17 17 17 16 15 15 15 15 15 15 15 15 15 15 13 12 13 13 14 14
11 9 9 9 10 10 11 11 12 12 12 13 12 12 12 12 13 13 13 13 14 15 15 15 15 14 14 14 13 12 12 12 12 12 13 12 12 12 12 13 13 14 14 14 14 14 14 13 14 15 15 16 16 16 16 16 16 16 17 18 18 18 19 19 18 18 17 17 16 16 16 16 15 16 16 16 16 16 16 16 15 14 14 14 14
13 12 11 10 11 11 12 12 12 12 13 13 12 12 13 13 13 13 13 13 14 14 15 15 14 14 13 14 13 12 12 12 12 12 12 13 13 13 13 13 13 14 14 14 14 14 14 14 14 14 15 16 16 17 17 17 17 17 17 18 18 19 19 19 19 19 18 17 17 16 16 16 16 16 16 17 17 18 18 17 17 15 15 15 15
14 15 14 12 11 12 13 13 13 13 13 13 13 13 13 13 13 13 13 13 13 14 14 14 14 14 13 14 13 12 12 12 12 12 12 12 12 13 13 13 13 13 14 14 14 14 14 14 14 14 15 16 16 17 17 17 17 17 17 18 18 19 19 19 19 19 19 18 17 17 16 16 16 16 15 16 17 18 19 19 18 18 17 16 16
14 15 15 14 13 14 14 13 13 13 13 13 13 13 13 13 13 13 13 13 13 13 14 13 13 14 14 14 13 13 13 12 12 12 12 12 12 12 12 12 12 13 13 14 14 15 14 14 14 15 15 15 16 17 17 17 17 18 18 18 18 19 19 19 19 19 19 19 19 19 18 17 17 16 16 15 16 17 18 19 19 19 19 18 17
14 15 16 15 14 14 15 15 14 13 14 13 13 13 13 13 13 13 13 13 13 13 13 13 13 14 14 14 14 13 13 12 12 12 12 12 11 11 11 11 11 12 12 13 14 15 15 15 15 15 15 15 16 17 17 17 17 18 18 18 18 19 19 19 20 20 19 19 19 20 20 19 19 19 17 16 16 16 17 19 20 20 20 19 19
13 14 16 16 15 15 15 15 14 14 14 13 13 14 14 13 13 13 12 12 13 13 13 13 13 14 14 14 14 13 13 13 12 12 12 12 11 11 10 10 11 11 12 12 13 14 15 15 15 15 15 15 16 16 17 17 17 18 18 18 18 19 19 19 20 20 20 20 19 20 20 20 20 20 20 18 17 16 16 17 19 20 21 21 21
13 14 14 15 15 15 15 14 14 15 15 14 14 14 14 14 13 13 13 12 12 13 13 13 13 13 13 14 14 13 13 13 13 12 12 12 11 11 10 10 10 10 11 12 13 14 14 15 15 15 15 15 15 16 16 17 17 18 18 18 18 19 19 20 20 20 20 20 20 20 20 20 20 21 21 21 20 19 18 17 18 19 20 22 22
12 13 13 13 13 14 14 14 14 15 15 14 14 14 14 14 13 13 12 12 12 13 13 13 13 13 13 13 14 13 13 13 13 13 12 12 12 11 11 10 10 10 10 11 12 13 14 14 15 15 15 15 15 16 16 17 17 18 18 18 18 19 19 20 20 21 20 20 20 21 21 20 20 20 21 22 21 21 20 19 19 18 19 21 22
11 11 12 12 12 12 13 14 15 15 14 13 14 14 14 13 12 12 12 12 12 12 13 13 13 13 13 13 13 13 13 13 13 13 13 12 12 11 11 11 11 11 10 11 11 12 13 14 15 15 16 16 16 16 16 17 17 18 18 18 18 18 19 20 21 21 20 20 21 21 22 21 21 21 21 21 21 22 21 21 21 20 20 20 21
11 11 11 11 10 11 12 13 14 14 13 13 13 13 13 13 12 12 12 12 12 12 13 13 12 12 12 12 13 13 13 13 13 13 13 13 12 12 12 12 11 11 11 11 11 12 13 13 14 15 16 16 16 16 17 17 17 18 18 19 19 18 19 20 21 21 21 21 21 21 22 22 22 22 21 21 22 22 21 21 21 21 21 20 20
9 9 9 9 10 11 12 13 13 14 13 13 13 13 13 12 12 12 12 12 12 12 12 13 12 12 12 12 13 13 13 13 13 13 13 13 13 13 13 12 12 12 12 12 12 12 13 13 14 15 16 16 17 17 17 17 18 18 19 19 19 19 19 20 21 21 21 21 21 21 22 22 23 23 22 22 22 22 21 21 21 21 21 21 20
8 8 8 9 11 11 12 13 13 13 13 12 12 13 12 12 12 13 12 12 12 12 12 13 12 12 12 13 13 13 13 13 13 13 13 13 13 13 13 13 13 13 13 13 13 13 13 14 14 15 16 17 17 18 18 18 18 19 19 20 20 20 19 20 21 22 22 22 22 22 22 22 23 23 22 22 22 22 22 22 21 21 22 21 21
8 8 9 10 11 11 12 13 13 12 13 12 12 12 12 12 13 13 12 12 12 12 13 13 13 12 13 13 13 13 13 13 13 13 13 13 13 13 13 14 14 14 14 14 14 14 14 14 15 15 16 17 17 18 18 19 19 19 20 20 21 21 21 21 21 22 22 23 23 22 22 22 22 23 22 23 23 23 23 23 22 21 22 22 21
9 8 10 11 10 11 12 12 11 11 12 12 12 12 12 12 13 12 12 12 12 13 13 13 13 13 13 14 14 13 13 13 13 13 14 13 13 13 13 14 14 14 14 15 15 15 15 16 16 16 16 17 17 18 18 19 19 20 20 21 21 21 22 22 22 22 23 23 23 22 22 23 23 23 23 23 24 23 23 24 24 23 23 22 22
11 11 12 12 11 11 11 11 11 12 12 11 11 12 12 12 12 12 12 12 12 13 13 13 13 13 13 14 14 13 13 14 14 14 14 14 14 13 14 14 14 14 14 15 15 15 16 16 17 17 17 18 18 18 19 19 20 20 20 21 21 21 22 22 22 22 23 23 23 23 23 23 23 23 23 24 24 24 23 24 25 25 24 23 23
13 13 14 13 12 11 10 10 11 11 11 11 11 11 11 12 12 12 12 13 13 13 13 13 13 13 13 13 14 14 13 14 14 14 14 14 14 14 14 15 15 15 15 15 15 15 16 16 17 17 18 18 19 20 20 20 20 20 20 20 21 21 21 21 21 21 22 22 23 23 23 23 23 23 24 24 24 25 24 24 24 25 25 24 24
13 13 14 14 13 12 12 11 11 11 11 11 11 11 11 12 12 12 12 12 12 12 13 13 13 13 14 14 14 14 14 14 14 14 14 14 15 15 15 15 15 15 15 15 16 16 16 17 17 18 18 19 19 20 21 21 21 21 21 21 20 20 21 20 20 20 21 22 22 22 22 22 22 22 23 24 24 25 25 25 24 24 25 25 24
13 13 13 12 12 13 13 12 11 11 11 11 11 11 11 11 11 12 12 12 12 12 13 13 14 14 14 14 14 14 14 14 14 14 14 15 15 15 15 15 15 15 15 15 16 17 17 18 18 18 18 19 19 20 21 21 22 22 21 21 21 20 20 20 20 20 20 21 22 22 22 22 22 22 23 24 24 25 25 25 25 24 25 25 25
14 14 14 13 11 12 12 12 11 11 11 11 11 11 11 11 11 11 11 12 12 12 13 13 13 14 14 14 14 14 14 14 14 15 15 15 15 15 15 16 15 16 16 16 17 18 18 18 18 19 19 19 19 20 21 21 22 23 22 22 22 21 20 20 20 20 20 20 21 22 22 22 22 22 22 23 24 24 25 25 25 25 25 26 26
15 15 14 13 11 10 11 11 11 11 11 11 11 11 11 11 11 11 11 11 12 12 13 13 13 13 14 14 14 14 14 14 15 15 15 15 15 15 15 16 16 16 16 17 18 19 19 19 19 19 19 20 20 20 21 21 22 23 23 23 22 22 21 20 19 19 19 20 20 21 22 22 22 22 22 23 23 24 24 24 25 25 25 26 26
15 15 14 12 10 9 10 10 11 11 10 10 11 11 11 11 11 11 11 11 12 12 13 13 13 13 13 13 14 14 14 15 15 15 15 15 15 15 15 16 16 16 17 18 19 19 20 20 20 20 20 20 21 21 21 21 22 23 23 23 23 22 22 21 20 19 19 19 19 20 20 21 21 22 22 22 22 23 23 24 24 25 25 25 26
14 13 12 13 11 10 10 10 10 10 10 10 10 11 11 11 11 11 12 12 12 13 13 13 13 13 13 14 14 14 15 15 15 15 15 15 15 15 16 16 16 17 17 18 19 19 20 20 21 21 21 21 21 21 21 21 22 22 23 23 23 23 23 22 20 20 19 19 19 19 19 20 20 20 21 21 21 22 23 24 24 24 24 25 26
15 13 13 13 13 12 11 11 11 10 10 10 10 11 11 11 11 12 12 13 13 13 13 13 13 13 13 14 15 15 15 15 15 15 15 15 15 15 16 16 17 17 18 18 19 19 19 20 20 20 20 20 20 20 20 21 21 22 22 23 23 23 23 22 21 21 20 19 18 19 19 19 19 19 20 20 21 21 22 23 23 23 24 24 24
15 15 14 14 14 13 12 12 12 11 10 10 11 11 12 12 12 12 12 13 14 14 14 14 13 14 14 15 15 15 15 15 14 15 15 15 15 15 15 16 16 17 18 18 19 19 19 19 19 19 18 18 19 19 20 20 21 21 22 23 23 23 23 22 21 21 20 19 18 18 18 19 19 18 19 19 20 20 21 21 22 22 22 23 23
15 15 14 14 14 13 13 13 13 12 12 12 12 12 13 13 13 13 13 13 13 13 14 14 13 14 15 15 15 15 15 15 14 14 15 14 15 15 16 16 16 17 17 18 18 18 18 18 18 18 17 17 18 18 19 19 20 21 21 22 23 23 22 22 22 21 21 20 19 18 18 18 18 18 18 18 19 19 19 19 20 21 21 21 22
16 15 14 13 13 13 13 13 13 13 14 14 13 13 14 14 14 13 13 13 13 13 13 13 14 15 15 15 15 16 15 13 13 14 14 14 15 16 16 16 16 16 17 17 18 18 18 18 17 17 17 17 17 18 18 18 19 20 20 21 22 22 22 22 21 21 20 19 18 18 18 18 18 18 17 17 18 18 18 17 17 18 19 20 20
16 16 15 14 13 13 13 13 13 14 14 14 14 14 14 14 14 14 14 13 13 12 13 13 14 15 15 15 15 15 14 13 13 14 14 14 15 16 16 16 16 16 17 17 17 18 18 17 17 17 16 17 17 17 18 18 19 19 19 20 21 22 22 22 21 20 19 19 18 18 18 18 18 17 17 16 16 16 16 16 15 16 17 18 18
16 16 15 14 14 13 13 13 14 14 14 14 14 14 14 15 15 14 14 13 12 12 13 13 14 15 15 15 15 15 14 14 15 15 14 14 15 15 16 16 16 16 17 17 17 17 17 17 17 17 16 16 16 17 17 18 18 18 18 18 20 21 22 21 21 19 19 18 18 18 18 18 17 17 16 16 15 15 15 15 15 15 16 17 17
16 16 15 14 14 14 15 15 15 15 15 14 14 15 15 14 14 14 14 13 12 12 13 14 14 15 15 15 15 15 14 15 15 15 15 14 14 14 15 16 16 16 17 17 17 17 17 17 17 17 17 16 16 16 17 17 18 18 17 16 17 19 21 21 20 19 18 18 17 17 17 17 17 17 16 16 16 16 16 16 15 14 15 16 17
16 16 15 15 15 15 15 16 16 16 16 15 15 15 15 14 14 14 13 13 12 13 14 14 15 15 15 15 15 14 14 14 15 15 15 14 15 15 16 16 16 17 17 17 17 17 17 17 17 17 17 15 15 15 16 17 17 16 15 14 15 17 19 20 19 18 18 18 17 17 17 16 17 16 16 16 16 16 16 16 16 15 15 15 16
16 16 16 16 16 16 16 16 16 16 16 16 15 15 14 14 14 13 13 13 13 13 14 14 15 15 15 15 15 14 14 14 14 14 14 14 15 15 15 16 16 17 17 17 17 17 17 17 17 17 16 14 13 14 15 16 16 15 13 13 14 15 17 18 18 18 18 17 17 17 16 16 16 16 15 15 15 15 15 15 15 15 15 15 16
17 16 16 16 16 16 16 16 16 16 16 16 15 15 14 14 14 13 13 13 13 14 14 15 15 15 15 15 15 14 14 14 14 14 14 14 15 15 15 16 16 17 17 17 17 17 17 17 17 16 14 13 12 13 14 15 15 13 12 12 12 13 15 17 18 17 17 17 16 16 16 16 15 15 14 14 15 15 14 14 14 14 14 14 15
17 16 16 16 16 16 16 16 16 16 16 16 15 15 14 13 13 14 13 13 14 14 15 15 15 15 15 15 15 14 14 14 14 14 14 15 15 15 15 16 16 16 17 17 17 17 16 16 16 15 13 12 12 12 13 14 13 12 11 11 11 12 14 16 17 17 16 16 16 16 16 16 15 15 15 14 14 15 14 13 12 12 12 12 13
17 17 16 16 16 16 17 16 16 17 17 16 16 16 15 14 14 14 14 14 14 15 15 15 15 15 15 15 15 14 14 14 14 14 14 14 15 15 15 15 16 16 16 16 16 16 16 16 15 14 13 12 12 12 13 13 13 11 10 10 10 11 13 14 15 16 15 15 15 15 16 16 16 15 15 14 14 15 14 13 12 12 11 11 11
17 16 16 16 16 16 17 17 17 17 17 17 16 16 15 14 14 14 14 14 15 15 15 15 16 16 15 15 15 14 14 14 14 14 14 14 14 15 15 15 15 15 15 15 15 15 15 15 14 14 13 12 11 11 12 12 12 11 10 10 10 11 12 13 14 14 14 15 15 14 15 16 15 15 14 14 14 15 14 13 12 12 11 11 10
17 17 16 16 16 17 17 17 18 18 17 17 17 16 16 15 15 14 14 14 15 15 15 15 15 15 15 14 14 14 14 14 14 14 15 15 15 15 15 15 15 15 15 15 15 15 15 14 14 13 13 12 11 11 11 11 11 10 9 10 10 11 11 12 13 13 14 14 14 13 14 15 15 15 15 15 15 14 14 14 13 12 11 11 10
17 17 16 16 16 17 18 18 18 18 18 17 17 17 17 16 16 15 15 15 15 15 15 15 15 15 15 14 14 14 14 14 14 15 15 15 15 15 15 15 15 15 15 15 14 14 14 14 13 13 12 12 11 11 11 11 11 10 9 9 10 10 11 12 12 13 13 13 13 13 13 13 14 14 15 15 15 15 14 14 13 12 11 10 10
17 17 16 16 17 18 18 18 18 18 19 18 18 17 17 17 17 16 16 15 15 15 15 15 15 15 15 15 14 14 14 14 15 15 15 15 15 15 15 15 15 15 15 14 14 14 14 14 13 13 12 11 11 11 11 11 11 9 9 9 9 10 11 11 12 12 13 13 13 13 13 13 13 14 14 15 15 15 15 14 13 13 12 11 10
17 17 17 18 18 17 17 18 19 19 19 19 18 18 18 18 18 17 17 16 16 16 15 15 15 15 15 15 15 14 14 14 14 15 15 15 14 14 15 15 14 15 15 15 14 13 13 13 13 12 11 11 11 11 11 11 10 9 9 9 9 10 11 11 12 12 12 12 13 14 14 14 14 14 14 14 14 14 14 14 14 13 12 11 10
18 18 18 18 18 18 18 19 19 19 19 19 19 19 19 19 18 18 18 17 16 16 16 15 15 15 15 15 15 15 15 14 14 15 15 15 14 14 15 14 15 15 15 15 14 13 13 13 12 12 11 10 10 10 11 11 10 9 9 9 10 10 10 11 12 12 12 13 13 14 14 14 14 14 14 13 13 13 13 13 13 13 13 12 11
18 18 18 18 19 19 20 20 20 20 20 19 19 19 19 19 19 19 18 18 17 16 16 16 15 15 15 15 15 15 15 15 15 15 15 15 15 14 14 14 15 15 15 15 14 13 13 12 12 11 10 9 9 10 11 11 10 9 9 9 10 10 10 11 11 11 12 13 13 14 14 14 14 15 14 14 13 13 13 13 13 13 13 13 12
19 19 19 19 19 19 20 21 20 20 21 20 20 19 19 19 20 20 19 18 17 17 16 16 16 16 16 16 15 15 15 15 15 15 15 15 14 14 14 14 14 14 14 14 13 12 12 12 12 11 9 8 8 9 10 10 9 9 9 10 10 10 10 11 11 12 12 13 14 14 14 14 14 15 14 14 14 13 13 14 13 13 13 13 13
20 20 20 20 20 20 21 21 21 21 21 21 20 20 19 20 20 20 20 19 18 17 17 16 16 16 16 16 16 15 15 15 15 15 15 15 14 14 14 14 14 14 13 12 12 12 11 12 12 10 8 7 8 9 9 9 8 9 9 10 10 10 10 11 12 12 13 14 14 14 14 14 14 15 15 14 14 14 14 14 14 14 14 13 13
21 20 20 21 21 21 22 22 22 21 21 21 21 21 20 20 20 20 20 19 19 18 17 16 16 16 16 16 16 16 15 15 15 15 15 15 15 14 14 14 14 14 12 12 12 12 12 12 12 9 6 6 7 8 8 8 8 8 8 8 9 9 8 9 9 10 11 12 12 13 14 14 14 14 14 14 14 14 14 14 14 14 14 14 14
21 21 22 22 22 22 22 22 22 22 22 22 22 21 21 21 20 20 20 19 19 18 17 17 17 17 17 16 16 16 15 15 15 15 15 15 15 14 14 13 13 13 12 11 12 11 11 12 10 7 5 6 7 7 7 7 7 6 6 7 7 7 7 7 7 8 8 9 10 11 12 12 12 13 13 14 14 13 13 13 13 14 14 14 14
22 22 23 23 22 22 22 22 22 22 22 23 22 22 21 21 21 20 20 20 19 19 18 18 17 17 17 17 16 16 15 15 15 15 15 15 14 14 13 12 13 13 12 11 11 11 10 10 8 6 6 6 6 6 6 5 5 5 5 6 7 7 7 7 6 6 6 7 8 9 10 10 11 12 13 14 14 14 13 13 13 14 14 14 14
23 23 23 23 23 23 23 23 23 23 23 23 23 22 22 21 21 21 20 20 20 19 19 18 18 17 17 17 16 16 15 15 15 15 15 15 14 14 13 13 13 13 13 12 12 12 11 10 8 7 7 6 6 5 5 4 4 5 5 5 6 6 6 6 6 6 6 6 7 8 9 10 11 12 13 13 14 14 14 13 13 13 13 13 13
23 23 24 24 23 23 23 23 23 23 23 23 23 22 22 22 21 21 20 20 20 20 20 19 18 18 17 17 16 16 15 15 15 15 15 15 15 15 14 14 14 14 14 14 13 13 12 11 9 8 7 7 6 6 5 5 5 5 5 5 5 4 3 4 5 5 6 7 8 8 9 9 10 11 11 12 12 13 13 13 13 13 13 12 12
24 24 24 24 23 23 23 23 23 23 23 23 23 22 22 22 22 22 21 21 20 20 20 19 19 18 18 17 17 17 16 16 16 16 15 15 15 15 15 15 15 14 14 13 13 13 13 12 10 9 8 7 6 6 6 6 6 5 5 5 5 4 4 3 3 4 5 6 7 9 9 9 10 10 10 11 11 12 12 12 12 12 12 11 11
Wind_Direction
247 246 254 260 265 267 272 277 282 288 292 296 300 304 307 309 315 320 323 327 329 330 333 334 333 332 330 328 324 318 314 309 305 302 300 297 292 285 279 277 275 274 274 272 270 270 267 265 262 260 259 258 257 255 254 253 253 253 252 251 250 249 249 251 251 249 246 245 244 243 242 243 244 244 242 240 238 236 234 235 234 233 232 229 227
250 247 254 262 266 268 274 280 283 287 291 294 297 300 304 308 312 318 319 322 328 330 332 334 334 333 332 329 325 319 316 312 307 304 302 299 295 288 281 278 276 273 273 273 271 270 268 266 264 261 260 259 259 258 257 256 255 254 253 252 250 250 250 249 249 249 247 245 244 244 245 245 245 245 244 242 240 237 234 234 233 233 235 232 228
266 259 257 264 269 271 277 282 283 286 290 292 294 295 300 305 308 313 316 319 324 328 331 333 334 334 333 331 327 321 318 314 309 305 304 300 296 291 284 280 277 272 271 272 272 270 269 268 266 264 261 259 260 260 259 259 257 255 253 253 252 251 252 250 248 249 247 245 244 245 245 246 246 245 245 244 241 239 236 234 232 233 236 235 231
270 269 270 269 271 275 278 280 283 284 287 289 290 293 297 300 303 308 313 317 320 324 329 331 333 333 333 332 329 325 322 317 312 308 305 302 296 290 285 281 277 273 272 271 270 270 268 268 268 266 264 261 260 260 260 259 258 256 254 253 253 252 252 251 249 249 246 244 245 245 244 244 245 245 246 246 242 239 237 235 233 233 235 235 234
264 268 277 278 277 280 278 278 282 283 284 285 287 291 294 296 300 304 308 313 317 322 326 328 330 332 332 333 332 328 326 322 318 315 311 307 299 292 287 283 279 274 272 270 268 268 267 267 269 267 266 263 261 261 261 260 259 257 255 253 252 252 252 251 250 250 247 245 246 244 243 244 243 243 246 245 241 239 238 236 235 234 234 235 236
265 264 272 281 285 283 280 279 280 281 283 284 286 289 292 294 298 301 303 307 313 319 323 325 328 331 331 333 332 329 328 326 322 320 316 313 307 297 291 287 282 275 272 270 268 266 265 266 268 268 267 265 263 262 261 260 259 258 257 255 253 252 253 252 251 250 249 248 247 245 245 244 242 242 244 245 243 241 238 236 236 235 235 236 236
271 265 266 277 283 280 279 280 278 278 281 283 285 287 289 292 295 298 300 302 309 315 320 324 328 330 330 332 330 327 327 326 323 320 317 316 312 305 297 291 286 278 273 272 268 265 265 265 266 267 267 268 266 264 261 260 260 259 257 256 255 253 252 253 252 251 250 250 248 246 247 246 244 244 244 244 245 243 241 238 237 237 236 236 237
271 269 268 273 276 274 275 276 277 279 281 282 283 285 287 288 291 295 297 300 305 312 316 320 326 328 329 330 329 325 324 324 322 321 317 315 314 309 303 296 291 283 276 274 269 265 265 266 267 266 267 268 269 266 262 261 261 260 258 257 257 255 253 253 254 252 251 250 249 248 248 247 246 244 244 243 244 245 244 241 240 239 238 238 238
271 272 271 271 271 271 273 274 276 280 280 280 282 284 285 286 287 291 295 297 302 308 312 316 322 325 326 328 328 325 323 322 320 319 318 315 314 310 306 302 297 289 283 278 272 268 266 267 268 268 268 269 269 268 264 263 263 261 259 258 257 256 254 253 254 255 253 251 250 249 248 248 247 245 244 243 243 244 244 244 242 241 241 240 238
273 273 273 271 270 271 272 275 277 279 280 279 281 283 284 285 285 287 292 294 297 303 308 313 318 322 323 325 326 325 323 321 317 317 317 315 313 310 307 305 301 296 291 284 278 274 270 268 268 269 270 270 270 271 268 266 265 263 262 260 258 257 255 254 254 256 255 252 250 249 249 248 247 246 244 243 244 245 245 245 243 242 244 242 239
275 272 273 273 274 275 275 276 279 280 281 279 281 283 283 284 284 284 289 291 294 299 304 309 313 317 319 321 324 324 323 321 317 315 314 313 312 310 308 305 302 299 295 289 285 281 276 271 269 270 271 272 271 272 270 268 267 265 264 262 260 258 256 255 255 256 255 253 250 250 249 248 247 248 246 245 246 246 245 245 245 245 246 244 241
277 272 275 276 279 282 279 279 281 279 279 278 280 283 283 282 282 283 287 289 291 295 299 304 307 311 315 318 320 322 321 320 318 315 313 311 309 307 306 304 302 299 296 292 289 287 283 277 273 272 271 271 272 272 271 270 269 267 265 264 262 260 257 256 257 257 255 254 252 251 250 249 249 249 249 248 248 247 244 245 246 246 245 245 244
294 288 287 289 291 292 287 285 283 278 277 276 278 282 283 282 281 282 284 286 288 290 293 299 303 306 311 315 318 319 320 319 317 314 312 310 306 303 302 301 300 298 297 294 291 289 287 282 278 276 273 272 272 273 272 271 270 268 267 266 264 262 260 258 257 257 256 255 254 252 251 250 249 250 250 248 248 247 245 245 246 246 245 245 246
313 300 298 300 298 296 292 289 285 280 276 275 278 281 281 282 282 281 283 284 285 287 289 295 299 302 307 312 315 316 317 318 317 314 312 309 304 301 300 299 298 297 295 294 292 290 289 286 282 280 277 275 274 273 273 272 270 269 268 267 266 264 262 260 259 258 257 255 255 253 252 251 250 250 249 248 247 246 244 244 246 245 244 245 245
314 300 302 305 301 297 296 294 290 284 279 276 278 279 279 281 282 282 283 283 282 284 288 292 295 298 304 309 311 312 314 315 315 313 312 309 304 300 299 298 297 295 294 292 290 289 288 287 285 283 281 278 276 275 274 272 271 269 268 267 266 265 263 262 261 259 257 256 255 253 252 252 251 249 247 247 248 247 244 244 243 243 244 245 245
318 311 309 308 306 302 300 298 294 289 283 278 279 279 278 280 282 282 282 281 281 283 285 288 291 295 301 305 306 309 312 314 313 312 311 308 304 301 300 299 297 296 294 292 291 289 288 287 286 284 283 281 278 277 275 274 273 270 268 267 266 265 265 265 263 260 258 257 255 254 252 252 251 249 248 248 249 248 246 244 242 242 244 245 244
319 317 313 310 307 302 299 299 295 290 286 281 280 280 279 280 281 281 281 282 282 282 284 287 289 293 298 301 303 306 310 312 312 311 309 305 303 302 301 300 299 297 295 293 292 292 290 289 287 285 282 281 279 277 275 275 274 272 269 268 267 266 265 265 264 261 259 257 255 254 252 252 251 249 249 249 248 248 248 246 243 242 243 243 243
321 318 315 312 307 302 302 301 297 293 290 286 284 284 284 283 283 283 283 283 283 281 283 287 289 292 295 298 300 303 307 309 309 308 306 304 302 301 301 300 299 298 296 295 294 294 293 292 290 288 284 282 279 277 275 273 273 272 270 268 267 266 265 265 264 263 259 256 255 254 252 251 251 249 249 250 248 247 247 247 245 242 241 242 242
324 319 316 311 306 304 305 304 302 299 294 290 287 287 287 286 286 285 285 285 284 282 282 285 287 290 293 295 297 301 304 306 307 306 305 304 302 300 300 300 299 299 298 297 296 296 295 294 293 290 288 285 282 278 275 273 272 271 269 268 267 267 265 264 264 263 260 256 255 254 253 252 250 249 249 249 248 247 247 247 246 243 241 241 242
330 326 323 315 305 302 303 305 305 304 299 296 293 291 289 288 288 287 286 287 286 284 283 284 286 288 290 292 295 299 302 304 306 306 304 304 303 301 300 301 301 301 300 299 298 297 296 294 293 291 289 287 284 281 277 274 272 269 268 267 266 266 264 263 263 262 259 257 255 254 253 252 251 249 248 248 248 247 247 247 246 245 243 242 242
337 334 331 325 313 306 306 306 306 306 302 298 296 294 292 291 290 289 288 288 288 287 286 286 286 287 289 292 295 298 301 302 305 305 303 303 302 301 301 302 303 303 302 301 300 300 298 295 293 290 288 287 285 283 280 276 272 269 267 265 265 264 262 262 262 261 259 257 255 255 255 253 251 250 249 248 248 248 247 246 246 245 244 243 242
344 342 341 336 326 317 311 308 309 311 308 303 300 298 295 292 292 291 289 290 290 288 288 287 286 287 290 293 295 298 300 302 304 304 303 303 303 302 302 303 304 304 303 302 301 301 299 296 293 290 289 287 286 285 283 279 274 269 266 264 263 263 261 260 260 260 260 258 256 255 255 254 252 250 249 248 248 247 246 246 246 246 245 244 241
347 346 347 341 332 323 314 309 311 314 315 312 307 304 299 295 295 295 292 292 291 289 288 287 285 287 291 293 295 298 299 301 303 304 303 302 302 303 303 303 304 304 304 303 302 301 299 296 293 290 289 287 286 285 283 281 277 271 266 263 261 261 260 259 258 259 260 259 257 255 254 254 252 250 249 248 248 247 245 245 246 247 246 245 243
350 350 350 343 336 329 323 318 314 310 311 309 304 304 303 298 297 299 297 296 293 291 291 288 286 287 291 293 295 297 298 300 303 303 302 302 302 302 303 303 303 304 305 305 304 302 300 298 294 291 288 286 284 283 282 282 280 274 267 262 259 259 258 256 256 257 259 259 258 256 254 254 252 250 250 249 248 247 245 244 246 247 247 247 246
352 351 349 345 342 337 331 328 323 313 308 306 303 303 303 300 298 298 298 298 295 293 292 290 288 288 291 294 296 298 299 301 302 301 302 302 302 302 303 303 304 305 306 306 305 303 302 301 297 292 288 285 284 283 283 282 280 275 268 261 257 256 256 254 253 255 257 258 258 256 255 254 252 250 250 249 248 248 247 246 246 246 246 246 246
353 350 347 347 347 344 338 332 328 322 314 309 305 303 304 304 302 299 298 299 296 292 292 291 289 289 292 295 297 299 300 301 302 301 301 301 301 303 304 304 306 307 308 308 307 305 303 302 300 294 289 286 285 285 284 283 282 278 270 261 255 253 253 251 251 253 255 257 257 256 254 253 252 251 251 249 248 248 247 247 246 245 245 245 245
350 349 347 344 342 343 339 332 331 330 323 316 311 309 307 306 305 303 302 301 298 294 292 291 290 291 292 295 298 299 297 298 301 301 300 300 301 303 304 305 307 308 309 310 308 307 305 303 301 296 291 288 287 287 286 286 285 281 273 264 255 251 250 249 249 251 253 255 257 256 254 252 251 251 252 251 249 247 246 246 246 245 244 244 244
350 350 346 339 336 339 339 336 337 336 329 323 317 313 311 309 307 307 305 303 301 296 293 292 291 292 293 295 298 297 295 296 301 301 299 299 301 304 305 306 307 309 310 310 309 308 307 304 300 297 294 291 289 288 288 289 289 283 274 265 255 249 247 247 248 250 251 254 256 255 253 252 250 250 251 251 249 247 245 245 244 243 243 243 244
348 348 345 341 339 341 342 341 341 338 332 326 320 316 314 312 310 308 306 305 303 299 297 295 294 293 294 295 297 297 298 300 302 301 298 297 300 304 306 306 307 309 311 310 310 310 308 305 302 300 296 293 290 288 289 291 292 287 276 264 253 247 245 245 247 248 250 251 253 253 252 251 250 249 249 248 247 246 244 243 242 242 242 244 245
346 347 346 347 347 346 346 343 339 334 329 326 323 320 317 313 311 310 308 306 304 303 301 299 298 298 298 296 297 298 300 300 299 298 296 297 300 303 306 307 307 309 311 311 311 311 309 307 305 303 299 295 290 288 289 293 294 289 279 266 253 245 242 242 244 246 248 249 251 252 251 251 250 248 247 246 245 245 243 242 242 243 244 245 246
347 346 345 348 348 345 343 342 338 335 331 328 327 324 320 315 311 309 308 306 304 304 304 303 302 302 300 297 297 299 299 298 297 297 297 298 300 303 306 307 308 309 310 311 312 311 309 308 307 304 301 296 291 290 291 295 295 290 281 269 255 244 239 237 239 244 247 247 249 251 251 250 249 249 247 245 245 244 242 241 243 245 247 247 247
346 346 344 344 344 343 342 342 340 338 335 332 329 326 323 320 315 310 309 308 306 306 307 308 307 306 302 299 298 298 298 297 297 298 299 300 302 303 305 307 308 310 310 310 311 311 309 308 308 306 302 297 292 291 293 296 296 291 282 271 256 243 236 234 236 241 245 246 247 249 249 248 249 250 249 246 245 243 241 241 243 246 250 251 249
344 344 343 341 341 341 342 342 340 340 338 335 332 329 326 324 321 315 311 309 308 308 309 309 309 308 306 302 298 296 295 296 297 298 299 301 303 304 305 306 307 309 310 310 310 310 309 308 308 307 303 297 292 292 294 297 296 292 283 272 257 243 236 233 234 240 244 245 245 246 246 246 246 248 249 247 245 243 242 242 243 246 251 255 254
341 341 341 340 339 340 341 341 340 340 339 337 335 332 328 325 323 320 316 311 308 307 308 309 310 310 308 305 300 295 294 296 297 299 300 301 303 305 306 306 306 308 309 309 309 309 308 308 310 308 303 297 293 292 295 298 297 293 284 271 257 243 236 234 235 239 242 244 244 244 244 245 244 245 248 248 246 244 243 241 241 246 251 255 258
338 338 338 337 337 337 338 338 338 337 337 336 334 332 328 325 323 322 320 315 310 307 307 308 309 310 310 307 301 296 294 295 296 297 299 301 302 304 306 307 307 308 308 308 309 309 307 307 309 308 303 297 294 294 296 297 297 294 285 271 257 245 238 236 237 238 240 241 243 243 243 244 243 244 248 249 245 242 240 238 239 246 252 255 258
335 336 336 335 336 335 335 334 334 334 334 334 333 332 328 324 322 321 319 317 314 309 306 307 308 308 309 307 304 299 295 295 296 296 297 298 300 302 305 307 308 308 307 308 309 308 306 305 308 307 302 298 296 296 296 297 297 293 284 271 259 250 243 239 238 238 238 241 243 244 242 242 243 244 246 246 242 240 237 236 239 246 251 255 258
333 332 333 332 331 331 331 331 330 331 332 332 332 331 329 323 319 318 317 317 316 313 309 306 305 306 306 306 306 303 299 295 294 294 295 297 298 301 304 305 306 307 308 308 309 309 306 304 305 305 302 298 297 297 297 298 297 293 283 271 261 254 248 242 240 238 238 241 245 246 243 242 242 244 244 243 241 237 234 235 239 244 248 252 255
332 330 330 329 329 329 329 328 328 328 328 328 328 328 327 323 319 316 315 314 315 315 313 308 305 304 305 305 305 305 302 298 296 295 295 296 297 299 302 304 305 307 308 308 309 308 306 304 303 303 301 297 296 296 297 299 298 292 283 273 264 257 251 245 242 240 239 240 244 247 245 242 241 242 242 241 239 235 232 235 239 241 244 248 251
330 329 328 328 329 329 328 326 326 325 325 325 324 324 323 322 319 317 314 313 313 315 315 311 307 304 303 303 304 304 303 302 299 296 295 295 296 298 300 303 305 307 308 309 308 307 306 303 302 303 301 296 294 293 295 299 297 289 282 275 266 260 255 250 246 243 242 242 243 245 245 243 241 241 240 240 238 233 232 236 239 239 241 243 245
329 330 329 328 327 327 327 325 324 324 324 323 321 320 319 318 318 316 314 312 311 312 313 313 309 304 301 300 301 301 301 300 298 296 295 294 295 296 298 300 303 305 307 307 307 306 305 303 302 302 301 297 293 291 295 300 296 286 280 276 268 261 257 253 249 246 245 245 244 244 245 244 242 240 240 240 238 234 234 236 237 238 237 236 237
328 328 327 325 324 325 326 326 325 324 323 323 321 319 317 315 314 314 313 312 311 310 311 311 310 307 302 299 299 299 298 298 298 297 295 293 292 294 296 299 303 305 305 306 306 306 306 303 301 300 299 296 293 291 294 299 296 284 278 275 268 263 258 254 252 249 245 244 244 245 245 243 241 240 239 239 236 233 234 235 235 235 233 231 232
326 325 325 325 324 324 324 325 325 323 322 322 320 317 316 314 312 311 311 311 310 309 308 308 308 307 305 301 299 298 297 296 297 298 296 293 291 292 294 298 301 302 304 305 305 307 307 304 301 299 296 293 294 295 296 298 293 282 279 276 269 265 262 256 254 251 245 243 244 245 244 242 240 239 238 238 235 231 231 233 232 229 227 226 229
325 324 325 325 324 322 322 324 324 323 322 321 319 317 316 314 311 309 310 310 309 307 306 306 305 306 306 303 299 297 295 295 295 297 297 293 291 291 293 295 297 300 302 303 303 304 304 303 301 299 294 289 290 295 299 298 289 278 278 279 273 270 266 258 254 251 246 244 244 244 243 241 240 238 237 237 236 232 231 230 227 224 224 227 231
325 324 324 325 324 323 323 323 322 322 322 321 319 317 315 313 310 309 309 309 307 306 305 304 303 304 305 304 300 296 293 292 293 295 295 293 290 289 290 292 294 297 299 301 302 301 301 301 300 296 292 289 290 296 301 299 287 276 278 279 276 274 269 261 255 252 248 247 247 246 244 242 239 237 235 235 234 232 230 228 225 225 228 232 236
324 324 324 323 323 323 322 321 320 321 321 320 319 317 314 312 311 309 308 307 306 304 303 302 300 301 303 304 302 297 293 291 291 293 293 292 291 289 289 290 292 292 293 298 301 300 299 299 299 294 289 290 294 299 304 300 288 279 279 279 278 277 273 266 259 255 251 248 247 245 242 240 238 236 234 232 230 227 226 225 225 227 230 234 238
322 323 324 323 323 321 320 319 319 320 320 319 319 317 314 312 311 310 308 306 304 302 301 299 298 299 300 302 302 299 294 290 290 291 292 292 291 289 287 289 291 291 291 294 298 299 298 297 297 293 290 294 299 303 306 302 292 284 283 282 280 277 273 268 260 253 249 247 244 240 237 234 233 233 231 228 225 223 224 226 227 229 231 233 236
321 322 323 323 321 319 318 318 318 319 319 318 317 316 315 314 312 310 308 305 303 301 300 298 296 296 297 298 300 299 294 290 288 289 290 291 290 288 286 287 290 291 290 290 294 300 305 306 305 301 298 300 304 308 308 304 297 292 289 288 285 278 274 271 262 251 247 244 239 234 231 229 229 229 227 224 223 223 225 226 228 231 233 233 234
320 321 321 320 319 318 317 317 317 317 318 317 316 316 315 314 312 310 308 305 302 300 298 296 295 294 294 295 297 296 294 291 289 287 287 288 289 288 287 287 289 289 287 287 290 295 304 312 315 311 304 302 303 307 308 305 302 299 295 293 291 282 273 268 262 249 240 236 231 226 224 225 226 226 225 224 225 226 227 228 229 231 232 232 233
318 319 318 317 316 316 315 316 316 317 317 317 316 316 315 315 313 310 308 305 302 299 297 295 294 293 292 292 294 294 292 290 289 287 285 285 286 287 286 286 287 285 282 281 282 285 291 299 305 305 303 300 295 294 298 303 306 305 302 302 301 291 271 259 254 245 236 234 233 228 226 226 227 227 226 225 226 227 228 229 230 230 230 231 232
316 316 316 315 315 315 315 315 316 317 317 317 317 316 316 315 314 312 308 305 302 300 297 294 292 291 291 290 290 291 291 290 288 286 283 282 283 284 285 286 287 285 280 276 275 275 279 284 288 291 294 294 289 285 286 290 296 301 304 305 307 307 287 264 253 244 239 239 239 235 232 230 229 227 225 224 224 224 225 227 228 229 230 232 232
315 315 314 314 314 315 315 315 315 316 316 317 317 316 316 315 314 313 310 306 303 300 297 294 291 289 288 287 287 288 289 290 288 286 283 281 280 281 283 285 285 284 282 277 272 268 268 271 276 279 281 283 282 280 280 282 285 292 299 299 299 306 301 278 251 238 240 244 243 238 233 228 225 224 222 222 223 224 224 225 227 227 228 229 229